Weather History for New River MCAS, NC

Change the Weather History Date:

Monday, June 9, 2014

  Actual Average Record
Temperature  
Mean Temperature 76 °F -  
Max Temperature 81 °F 82 °F 97 °F (2008)
Min Temperature 71 °F 64 °F 50 °F (1997)
Cooling Degree Days 11    
Growing Degree Days 26 (Base 50)    
Moisture  
Dew Point 72 °F    
Average Humidity 87    
Maximum Humidity 100    
Minimum Humidity 77    
Precipitation  
Precipitation 0.37 in - - ()
Sea Level Pressure  
Sea Level Pressure 29.93 in    
Wind  
Wind Speed 8 mph (South)    
Max Wind Speed 17 mph    
Max Gust Speed 24 mph    
Visibility 9 miles    
Events Rain    
Averages and records for this station are not official NWS values.
T = Trace of Precipitation, MM = Missing Value Source: NWS Daily Summary

Daily Weather History Graph

Daily Weather History Graph

Search for Another Location

Airport:

Trip Planner

Search our weather history database for the weather conditions in past years. The results will help you decide how hot, cold, wet, or windy it might be!

Date:

Astronomy

Jun. 09, 2014 Rise Set
Actual Time 5:56 AM EDT 8:22 PM EDT
Civil Twilight 5:26 AM EDT 8:51 PM EDT
Nautical Twilight 4:50 AM EDT 9:27 PM EDT
Astronomical Twilight 4:10 AM EDT 10:07 PM EDT
Moon 4:48 PM EDT (6/9) 3:13 AM EDT (6/9)
Length of Visible Light 15h 24m
Length of Day
14h 25m
Waxing Gibbous, 85% of the Moon is Illuminated
Jun 9
Waxing Gibbous
Jun 13
Full
Jun 19
Last Quarter
Jun 27
New
Jul 5
First Quarter

Hourly Weather History & Observations

Time (EDT) Temp. Heat Index Dew Point Humidity Pressure Visibility Wind Dir Wind Speed Gust Speed Precip Events Conditions
12:56 AM 71.1 °F - 66.0 °F 84% 29.95 in 10.0 mi South 6.9 mph - N/A   Clear
1:56 AM 72.0 °F - 66.0 °F 81% 29.94 in 10.0 mi Calm Calm - N/A   Partly Cloudy
2:56 AM 71.1 °F - 66.0 °F 84% 29.93 in 10.0 mi SSE 3.5 mph - N/A   Overcast
3:56 AM 72.0 °F - 66.9 °F 84% 29.92 in 10.0 mi SSE 3.5 mph - N/A   Mostly Cloudy
4:56 AM 72.0 °F - 66.9 °F 84% 29.91 in 10.0 mi SSE 3.5 mph - N/A   Clear
5:56 AM 72.0 °F - 68.0 °F 87% 29.91 in 10.0 mi SSE 4.6 mph - N/A   Overcast
6:56 AM 73.0 °F - 70.0 °F 90% 29.92 in 10.0 mi SSE 4.6 mph - N/A   Clear
7:56 AM 77.0 °F - 72.0 °F 84% 29.93 in 10.0 mi South 10.4 mph - N/A   Mostly Cloudy
8:15 AM 78.1 °F - 73.0 °F 84% 29.93 in 10.0 mi South 9.2 mph - N/A   Mostly Cloudy
8:56 AM 79.0 °F - 73.0 °F 82% 29.94 in 10.0 mi South 10.4 mph - N/A   Mostly Cloudy
9:08 AM 78.1 °F - 72.0 °F 81% 29.93 in 10.0 mi South 10.4 mph 18.4 mph N/A   Mostly Cloudy
9:56 AM 79.0 °F - 72.0 °F 79% 29.94 in 10.0 mi South 13.8 mph - N/A   Overcast
10:56 AM 78.1 °F - 73.0 °F 84% 29.95 in 3.0 mi SSW 8.1 mph - 0.03 in Rain Light Rain
11:03 AM 75.9 °F - 73.0 °F 91% 29.94 in 2.0 mi Variable 6.9 mph - 0.01 in Rain Light Rain
11:11 AM 77.0 °F - 73.0 °F 88% 29.94 in 9.0 mi South 11.5 mph 17.3 mph 0.01 in Rain Light Rain
11:18 AM 78.1 °F - 73.9 °F 87% 29.94 in 10.0 mi South 10.4 mph 19.6 mph 0.01 in   Overcast
11:30 AM 75.9 °F - 73.0 °F 91% 29.94 in 1.5 mi South 12.7 mph - 0.10 in Rain Rain
11:33 AM 75.0 °F - 73.0 °F 94% 29.94 in 0.8 mi South 13.8 mph - 0.21 in Rain Heavy Rain
11:45 AM 75.0 °F - 73.9 °F 96% 29.94 in 1.2 mi South 9.2 mph - 0.34 in Rain Light Rain
11:48 AM 75.0 °F - 75.0 °F 100% 29.94 in 3.0 mi South 8.1 mph - 0.34 in Rain Light Rain
11:56 AM 75.9 °F - 75.0 °F 97% 29.95 in 10.0 mi South 8.1 mph - 0.34 in Rain Light Rain
12:37 PM 79.0 °F - 75.0 °F 88% 29.94 in 10.0 mi South 12.7 mph 19.6 mph 0.00 in   Overcast
12:56 PM 79.0 °F - 73.9 °F 84% 29.95 in 10.0 mi South 10.4 mph 20.7 mph 0.00 in   Overcast
1:56 PM 80.1 °F 84.2 °F 73.0 °F 79% 29.94 in 10.0 mi South 16.1 mph - N/A   Overcast
2:56 PM 80.1 °F 84.2 °F 73.0 °F 79% 29.93 in 10.0 mi South 16.1 mph 24.2 mph N/A   Mostly Cloudy
3:06 PM 81.0 °F 85.8 °F 73.0 °F 77% 29.91 in 10.0 mi South 13.8 mph 23.0 mph N/A   Scattered Clouds
3:31 PM 79.0 °F - 73.0 °F 82% 29.91 in 10.0 mi South 12.7 mph 23.0 mph N/A   Mostly Cloudy
3:56 PM 80.1 °F 84.2 °F 73.0 °F 79% 29.91 in 10.0 mi South 16.1 mph 21.9 mph N/A   Overcast
4:56 PM 80.1 °F 84.5 °F 73.9 °F 81% 29.91 in 10.0 mi South 17.3 mph 21.9 mph N/A   Overcast
5:56 PM 79.0 °F - 73.9 °F 84% 29.92 in 10.0 mi South 13.8 mph 20.7 mph N/A   Overcast
6:56 PM 78.1 °F - 73.9 °F 87% 29.91 in 10.0 mi South 11.5 mph - N/A   Overcast
7:15 PM 78.1 °F - 73.9 °F 87% 29.90 in 10.0 mi South 11.5 mph - N/A   Overcast
7:40 PM 78.1 °F - 73.9 °F 87% 29.91 in 10.0 mi South 9.2 mph - N/A   Overcast
7:56 PM 78.1 °F - 73.9 °F 87% 29.91 in 10.0 mi South 11.5 mph - N/A   Overcast
8:56 PM 78.1 °F - 73.9 °F 87% 29.92 in 10.0 mi South 9.2 mph - N/A   Overcast
9:07 PM 77.0 °F - 73.9 °F 90% 29.91 in 10.0 mi South 10.4 mph - N/A   Overcast
9:56 PM 78.1 °F - 73.9 °F 87% 29.94 in 10.0 mi South 9.2 mph - N/A   Overcast
10:05 PM 78.1 °F - 73.9 °F 87% 29.93 in 10.0 mi South 9.2 mph - N/A   Overcast
10:56 PM 77.0 °F - 73.9 °F 90% 29.96 in 10.0 mi South 6.9 mph - N/A   Mostly Cloudy
11:15 PM 75.9 °F - 73.9 °F 94% 29.94 in 10.0 mi SSE 6.9 mph - N/A   Mostly Cloudy
11:23 PM 75.9 °F - 73.9 °F 94% 29.94 in 10.0 mi South 5.8 mph - N/A   Scattered Clouds
11:52 PM 77.0 °F - 73.4 °F 89% 29.93 in 10.0 mi South 8.1 mph - N/A   Mostly Cloudy
11:56 PM 77.0 °F - 73.9 °F 90% 29.94 in 10.0 mi South 9.2 mph - N/A   Mostly Cloudy